Wind_Speed
69 65 61 61 62 61 60 58 57 56 54 52 52 50 48 47 46 44 42 42 40 34 30 30 28 28 32 35 38 41 42 41 40 39 37 36 36 37 39 40 39 37 36 37 37 37 37 37 35 32 30 29 26 25 26 26 26 27 27 26 25 26 28 29 28 26 26 25 24 24 24 24 23 22 21 19 18 17 16 15 15 15 14 12 11 10 9
68 70 67 64 63 63 62 59 55 54 54 54 53 50 48 48 47 45 45 45 41 36 34 33 30 31 34 37 39 41 42 42 42 41 40 39 39 40 41 42 41 39 38 38 39 40 39 39 37 35 34 33 30 29 29 28 27 28 28 26 24 24 26 28 29 29 28 27 26 26 25 24 23 23 22 21 19 18 16 16 16 15 14 13 11 10 9
70 70 69 68 66 63 62 61 59 56 53 51 52 51 50 48 47 46 47 46 43 40 39 38 36 36 37 38 39 39 39 39 39 40 41 41 42 44 44 43 42 41 41 41 41 41 41 40 39 38 37 36 34 33 33 31 28 29 29 26 23 22 22 25 29 30 29 28 27 27 26 25 24 24 24 23 21 19 18 18 18 17 15 14 12 11 10
72 70 69 69 68 66 64 63 62 61 58 55 54 54 53 51 51 50 48 47 46 44 42 41 38 34 34 34 35 36 36 35 35 36 38 40 41 42 42 42 40 40 42 43 42 42 42 41 40 39 38 38 37 36 35 34 31 30 30 27 24 21 21 23 26 27 28 29 28 28 27 27 25 25 26 24 22 21 20 19 19 18 17 15 14 13 12
69 68 69 69 70 70 67 64 63 63 63 61 59 58 55 53 52 49 46 45 45 41 39 39 36 34 33 32 32 33 35 35 35 36 37 38 39 39 40 39 38 38 40 41 41 42 42 42 41 40 39 39 38 37 36 35 34 32 30 28 25 22 21 22 22 23 26 28 29 28 28 28 27 27 27 26 24 22 21 21 20 19 18 17 16 16 15
66 67 70 70 71 73 69 65 64 64 63 64 62 59 55 51 49 46 43 44 43 39 39 40 38 37 35 33 32 33 33 33 34 36 36 36 36 35 35 33 32 32 34 36 37 38 38 39 40 40 39 39 39 38 37 36 36 33 30 28 25 22 21 21 20 22 25 28 29 29 29 30 29 28 27 27 25 24 24 23 22 20 19 19 19 18 18
65 65 70 71 72 73 69 66 67 66 65 65 63 60 56 53 50 48 46 45 43 41 42 43 42 41 38 35 33 32 31 31 32 33 33 34 34 33 31 29 27 27 30 32 32 32 33 34 36 38 39 39 40 40 38 37 37 35 31 27 23 20 20 20 20 22 25 27 29 30 30 31 30 29 28 27 26 26 25 25 23 22 21 22 22 22 22
66 64 68 71 72 72 70 69 71 70 68 66 63 62 60 56 53 51 50 49 47 45 46 47 46 45 41 37 34 32 32 32 32 32 33 34 34 33 30 28 27 27 28 27 27 27 28 30 32 35 37 39 40 40 39 37 36 35 31 26 21 18 18 19 19 21 24 27 30 31 31 31 29 28 27 26 26 27 27 27 26 25 24 24 24 24 24
68 66 69 71 72 73 72 73 74 71 69 68 65 64 62 59 57 56 54 52 50 48 47 47 45 42 40 37 34 34 36 36 35 35 36 35 34 31 29 29 29 28 26 25 24 24 24 25 27 30 34 36 38 38 38 36 34 32 29 24 21 19 18 18 18 19 22 25 28 30 30 28 26 25 25 25 27 28 28 28 28 27 27 28 28 27 27
69 69 69 67 68 68 68 72 75 72 69 69 68 65 63 60 59 59 55 51 49 47 46 46 45 41 39 37 36 38 40 40 39 38 37 35 33 32 31 30 29 28 27 26 25 24 23 23 23 25 29 32 33 35 35 34 32 30 27 24 22 20 19 18 18 18 19 22 24 27 27 25 24 24 25 26 27 27 28 28 29 29 29 29 30 30 30
72 71 69 67 65 60 58 65 75 75 72 72 71 67 63 62 61 60 55 51 51 51 49 49 47 44 41 40 40 41 42 41 41 40 37 36 36 35 34 32 30 30 29 28 27 26 25 24 23 23 25 27 30 31 32 32 30 29 27 25 24 23 21 20 20 20 20 20 21 23 23 24 24 25 25 26 27 28 28 28 28 29 29 29 29 30 31
74 73 70 66 59 51 52 60 69 74 75 74 72 68 63 61 61 58 55 55 55 53 52 51 49 46 45 45 44 43 41 40 41 40 40 40 39 37 36 33 32 32 31 30 29 28 27 25 24 24 24 25 27 29 29 30 29 29 29 28 27 26 24 22 22 22 21 20 19 20 21 23 24 25 26 27 27 28 28 28 29 29 30 30 30 31 31
74 73 72 66 54 48 56 59 59 69 78 74 71 70 66 63 62 59 58 58 57 55 53 52 51 49 47 47 46 44 41 41 41 41 41 42 41 40 38 35 34 34 33 31 31 30 29 28 27 26 26 25 26 27 29 29 28 29 31 31 30 29 27 25 24 24 22 20 18 19 21 23 24 25 25 27 28 28 28 29 30 30 30 31 31 31 31
73 72 72 68 53 48 59 62 57 65 74 69 66 66 64 63 63 61 60 60 58 57 54 52 52 51 49 47 46 45 44 43 43 43 43 43 42 42 40 38 37 36 35 33 32 31 30 30 29 29 28 27 27 27 28 29 30 31 31 31 32 31 29 27 27 26 24 22 20 21 22 23 23 24 25 27 28 29 29 30 31 32 32 32 32 33 33
72 72 71 68 57 51 60 65 63 66 70 67 66 65 61 61 62 62 61 60 59 58 56 53 52 52 50 48 48 47 46 44 43 44 44 45 44 44 43 41 39 38 37 36 35 33 32 32 31 31 31 29 28 28 28 29 31 31 30 31 32 33 31 30 29 28 27 26 24 23 23 23 24 25 26 28 29 30 31 32 33 35 35 35 35 36 36
69 70 68 66 63 61 65 67 67 71 74 72 71 69 66 64 63 61 60 61 60 59 57 54 53 53 52 50 48 47 46 45 44 44 44 45 45 45 45 44 42 41 40 38 37 36 35 33 33 33 32 32 31 30 30 30 31 31 31 31 32 34 33 32 31 31 30 29 28 27 27 27 28 28 29 30 31 32 33 35 37 38 38 38 39 39 39
70 71 71 72 71 71 71 71 72 76 77 75 73 72 71 68 64 62 61 61 62 62 59 55 54 53 53 52 49 47 47 46 45 44 44 45 45 46 46 45 44 43 42 40 39 38 37 36 35 34 34 34 33 33 32 31 32 32 32 32 33 34 35 35 34 33 31 30 30 30 31 31 32 32 32 34 34 35 36 37 39 41 41 42 43 42 43
69 72 74 76 77 77 78 79 79 78 78 77 75 74 73 70 66 64 63 60 60 62 61 58 55 53 52 52 50 48 47 47 46 45 44 44 45 45 45 44 44 44 43 42 41 40 39 38 36 36 36 35 35 35 34 34 34 33 33 34 34 34 35 36 35 34 33 32 33 34 35 36 36 36 37 38 38 39 40 40 41 42 44 46 46 46 46
63 68 72 75 78 81 83 83 82 80 79 78 76 74 74 73 70 67 65 63 61 61 60 59 55 53 53 52 51 49 48 47 47 46 45 44 44 44 44 43 44 45 44 43 42 42 40 39 38 37 37 37 36 37 37 37 36 35 34 34 35 36 36 36 36 36 35 35 35 37 39 40 40 40 41 42 42 43 43 43 44 45 46 48 49 48 48
58 64 70 75 81 84 84 83 81 79 80 81 79 76 75 73 71 69 67 66 64 62 61 59 56 54 53 53 52 50 49 48 47 47 46 45 44 44 43 43 43 44 44 44 43 42 41 41 40 39 38 38 38 38 38 38 38 38 37 36 36 37 38 38 38 39 38 38 39 40 42 43 44 44 44 44 45 45 45 46 47 48 49 49 49 49 48
58 63 67 72 77 81 82 81 80 81 83 82 81 79 77 74 72 70 68 67 66 64 62 60 57 55 54 54 53 52 50 49 48 47 47 46 45 45 44 43 42 43 43 43 43 42 41 41 41 40 39 39 39 38 38 38 38 39 39 39 39 39 39 40 41 41 42 43 43 45 46 47 47 47 47 47 47 48 48 48 49 49 50 50 49 49 49
59 65 67 69 73 78 80 81 83 85 85 83 81 80 79 76 74 71 69 68 67 65 64 61 59 56 55 54 54 54 52 51 49 48 48 47 47 46 46 45 44 43 42 42 42 42 41 41 41 41 40 40 39 39 39 38 38 39 40 40 41 41 41 42 42 43 44 45 46 47 47 48 48 49 49 49 49 49 49 49 49 49 50 50 50 50 50
56 62 67 72 77 80 81 82 84 85 84 82 81 80 79 77 75 73 71 69 67 66 65 62 60 58 57 55 55 55 53 52 51 50 49 48 48 47 47 46 45 44 43 42 42 41 41 41 41 40 40 40 40 39 39 39 39 39 40 41 42 42 42 43 43 43 44 46 46 46 47 48 48 49 49 49 49 49 50 50 50 50 50 50 50 51 53
51 56 62 71 77 78 77 79 82 84 83 82 81 80 78 77 76 74 71 69 68 66 65 63 61 59 58 56 56 55 54 53 52 51 50 50 49 48 48 47 47 46 45 44 42 42 42 41 41 40 39 39 39 39 39 40 40 40 41 42 43 43 44 44 44 44 46 46 46 47 48 49 50 50 51 51 51 51 51 51 51 51 52 52 52 53 54
45 49 56 64 71 73 74 77 81 83 83 81 80 79 78 77 76 74 72 70 68 67 65 63 61 59 58 57 56 55 55 54 53 52 51 51 50 49 49 49 48 47 46 45 45 44 43 42 42 41 40 40 40 40 40 40 41 41 42 42 43 44 44 45 45 46 46 47 48 49 50 51 51 52 52 52 52 51 51 51 51 51 51 51 52 53 54
39 44 49 57 63 65 67 72 77 79 81 81 80 79 78 77 76 74 73 71 69 67 66 64 62 60 58 56 55 55 54 54 54 53 52 52 51 50 50 50 49 49 48 47 46 45 44 44 43 43 42 42 42 42 42 42 42 43 43 43 43 43 44 45 46 46 47 48 49 51 51 52 53 53 52 52 52 51 50 50 49 50 50 51 52 54 55
31 36 42 49 54 57 60 65 70 74 78 80 79 79 78 77 76 75 73 72 70 68 67 65 63 61 59 56 55 55 54 53 53 53 53 52 52 52 51 50 50 49 49 48 47 47 46 46 46 45 45 45 44 45 45 44 44 44 44 44 44 44 45 45 46 47 48 50 51 52 53 53 53 53 52 52 51 50 49 50 50 51 52 53 55 57 59
21 27 34 40 45 49 54 60 66 71 75 76 76 76 76 76 75 74 73 72 71 70 68 66 64 63 59 55 54 55 55 54 53 52 52 52 52 52 52 51 50 50 49 49 49 48 48 48 47 47 47 47 46 46 46 45 45 46 46 46 46 46 47 47 48 49 50 51 53 53 54 53 53 53 52 51 51 51 51 52 53 54 55 57 59 61 62
14 20 26 32 36 42 49 55 60 65 69 71 71 72 73 74 73 71 70 71 70 69 68 66 65 64 60 57 54 54 54 54 54 52 52 52 51 52 52 51 51 51 50 49 49 49 49 49 49 49 48 48 48 47 46 46 46 46 47 47 48 48 48 49 49 50 52 53 54 55 55 54 54 53 52 52 52 53 53 54 54 56 58 60 61 62 63
10 14 19 23 29 36 44 49 53 57 60 62 64 66 68 69 69 68 67 67 67 66 65 64 64 63 61 59 56 52 51 53 54 53 51 49 49 50 51 51 51 52 52 51 51 50 50 50 50 50 50 50 49 49 48 47 47 47 48 49 49 49 49 50 51 52 53 54 55 56 55 55 54 54 53 53 54 55 55 55 57 58 60 61 61 62 62
10 12 15 18 23 30 36 43 48 51 54 55 56 59 61 63 63 63 61 60 59 58 58 59 60 60 60 60 57 53 51 52 53 52 50 49 47 47 48 48 49 50 51 51 51 51 51 51 51 51 51 51 51 50 49 48 48 48 49 49 50 50 51 51 51 52 52 53 54 55 54 55 55 55 56 56 57 58 58 57 58 59 61 61 60 60 60
11 12 14 16 18 22 28 35 41 46 49 51 53 54 55 56 56 54 52 50 50 50 50 51 53 55 56 57 56 55 53 53 52 50 50 50 49 48 47 47 47 47 47 48 49 50 51 52 53 53 52 52 52 51 50 50 49 49 49 49 49 50 50 50 50 50 50 51 52 54 55 56 57 58 58 59 59 60 60 59 59 60 60 59 58 57 57
11 13 14 16 16 17 21 27 34 41 46 48 49 49 49 49 48 46 43 43 45 46 46 46 47 48 48 49 50 50 50 50 50 50 50 51 51 49 48 48 48 47 47 48 48 48 49 51 52 53 53 53 53 53 52 51 50 50 49 49 49 49 50 50 49 49 50 50 51 52 54 55 56 58 59 59 60 60 59 59 59 58 57 57 57 57 58
7 9 11 14 16 18 20 24 30 37 42 45 46 47 45 44 43 41 40 42 45 46 46 46 47 46 46 47 47 47 47 48 48 50 51 52 52 51 49 48 48 48 47 47 47 46 46 47 48 50 51 52 52 52 52 51 51 50 50 50 50 51 51 51 50 50 51 51 51 52 53 54 56 57 58 58 57 57 57 56 56 56 56 57 58 59 60
5 7 7 10 14 17 21 24 30 36 42 44 44 43 41 40 39 38 37 41 46 47 46 45 45 45 46 46 47 47 47 47 47 48 51 53 54 54 54 53 52 50 49 48 47 45 44 44 45 47 49 50 50 50 50 50 50 50 50 51 52 52 52 53 53 52 52 53 54 55 56 56 56 55 55 54 54 53 53 53 54 55 57 58 59 60 61
2 3 4 8 12 15 17 19 24 31 40 44 44 43 42 42 39 36 35 41 45 45 44 45 44 44 44 44 43 43 44 44 44 45 47 49 51 52 53 54 55 56 55 52 49 47 46 45 45 47 48 49 50 50 49 49 48 49 50 51 52 52 53 54 54 54 55 56 56 55 54 53 51 51 51 51 51 50 51 52 54 56 58 59 59 60 61
5 7 9 11 12 14 17 19 22 28 35 39 41 42 44 44 40 37 38 44 44 42 42 43 42 41 41 41 40 40 40 41 42 44 45 46 48 50 51 53 53 54 54 53 51 49 47 46 47 48 48 49 50 50 50 50 50 50 50 51 51 52 54 55 55 55 56 55 52 49 48 48 48 49 49 50 51 52 53 54 56 57 58 59 59 59 59
6 9 11 13 14 15 18 23 28 34 37 36 35 36 39 39 37 37 42 47 47 44 43 42 41 40 39 38 38 40 41 40 41 42 43 45 46 47 47 48 48 49 49 50 50 49 49 48 48 49 50 51 51 51 52 53 53 52 52 51 52 53 54 54 53 53 52 49 44 42 43 46 47 49 49 50 52 53 54 55 56 57 58 59 58 58 58
5 6 5 6 8 10 14 21 30 36 37 34 31 32 34 35 34 36 40 43 44 43 44 45 45 44 41 37 36 38 40 41 42 42 43 45 46 46 46 46 47 48 49 49 50 50 50 50 50 51 51 52 53 53 53 54 55 55 54 54 54 54 53 52 51 50 48 45 42 41 43 45 46 48 49 50 51 52 54 55 56 56 57 57 57 57 56
4 3 3 3 2 4 8 17 27 33 34 33 32 32 33 34 34 35 37 39 40 41 45 47 46 44 43 42 40 39 41 43 45 46 47 47 47 48 48 50 51 52 53 53 53 53 53 53 53 54 54 55 56 56 57 57 58 58 58 59 59 57 53 51 51 50 49 47 44 43 44 45 46 47 48 49 50 52 54 54 55 55 55 55 55 54 53
5 3 4 4 3 1 3 11 20 27 29 31 32 32 31 30 30 32 35 38 39 40 43 44 41 39 42 45 46 45 44 46 48 49 49 48 48 48 49 49 49 51 53 55 56 57 57 56 57 58 58 59 59 60 61 62 63 63 63 63 65 63 59 56 55 55 52 50 47 46 46 47 48 48 48 49 51 53 54 54 54 54 54 53 53 51 50
4 4 5 5 4 2 2 6 15 21 25 28 29 29 28 27 28 30 33 36 39 40 41 41 40 37 38 43 47 47 46 46 47 47 46 44 42 41 39 38 38 39 41 44 48 52 55 58 59 60 61 61 61 62 64 64 64 65 65 65 66 65 62 60 60 60 58 55 52 50 49 49 50 50 51 52 53 54 54 54 53 53 52 52 50 49 48
6 6 7 7 5 5 5 6 12 17 20 24 27 27 27 28 30 30 31 33 36 39 41 42 43 40 37 40 44 47 46 45 44 44 44 41 37 33 30 29 30 30 30 32 34 39 44 48 52 54 56 57 58 59 60 60 60 61 60 59 58 56 54 54 56 59 59 58 55 53 52 52 53 54 54 53 54 54 53 53 52 51 51 50 48 46 45
12 12 12 11 9 8 7 7 9 11 14 18 20 22 27 31 32 32 31 33 35 38 40 41 43 42 40 38 39 42 44 45 45 46 47 47 45 41 37 34 32 32 31 31 32 33 35 38 41 43 46 48 49 50 50 50 50 50 49 49 49 49 48 48 50 54 56 57 56 54 54 54 55 55 54 53 53 53 52 51 50 50 49 48 46 44 43
16 16 16 14 12 11 11 9 8 9 13 17 18 19 25 30 33 34 36 37 39 40 40 39 38 40 42 42 40 40 42 45 46 48 50 50 49 47 43 39 38 38 36 35 35 36 36 36 37 39 40 42 43 44 45 44 44 45 45 47 48 49 49 49 51 53 54 55 55 55 55 55 54 53 51 51 51 52 51 49 49 49 48 48 46 44 42
12 14 15 14 13 14 14 14 13 13 17 21 22 23 26 31 35 38 41 42 43 44 43 41 39 39 40 39 37 37 39 41 43 44 45 44 44 43 41 40 41 40 39 37 37 37 37 37 37 38 39 40 41 42 43 44 45 46 47 49 50 51 51 51 52 53 53 54 53 53 52 52 51 50 49 50 50 50 50 49 48 48 47 47 46 45 43
6 7 9 10 12 13 14 15 17 19 23 26 28 29 30 31 33 35 38 40 42 42 42 42 42 41 40 38 37 37 38 39 39 39 40 40 40 40 40 41 41 39 37 37 37 36 34 34 35 35 36 37 38 39 39 40 41 42 44 45 46 47 47 47 48 48 48 48 48 47 47 47 47 47 48 48 48 48 48 47 46 46 45 44 44 43 42
10 8 5 3 5 6 8 11 14 18 22 26 28 28 29 29 29 28 29 30 31 31 31 32 33 36 37 39 39 39 39 38 38 38 40 40 40 39 39 39 38 36 34 34 34 34 33 33 33 33 34 35 36 36 37 37 37 38 39 40 41 41 42 43 43 43 43 43 44 44 44 45 45 45 46 46 45 45 45 44 43 42 42 41 41 40 40
12 11 9 7 4 2 1 3 6 10 14 18 21 23 24 25 25 25 25 25 26 26 26 26 27 28 30 32 33 34 35 35 35 35 35 35 34 33 33 33 32 31 31 32 33 34 34 34 34 33 34 34 35 36 36 36 37 37 38 38 39 39 40 40 40 41 41 41 42 42 42 43 43 43 42 42 42 42 41 41 40 39 39 39 39 39 39
12 11 10 9 8 7 6 5 4 3 5 7 10 13 16 18 19 20 22 23 24 25 25 26 27 27 28 28 29 30 31 31 32 32 32 32 31 31 31 31 31 31 32 33 34 34 34 34 34 34 34 35 36 36 36 36 36 36 37 37 37 38 38 39 39 39 39 39 40 40 40 40 40 40 40 40 40 40 39 38 38 38 38 38 38 39 39
12 12 11 11 10 9 9 8 8 7 6 6 6 7 8 10 12 14 16 17 19 21 22 23 24 25 26 26 26 27 27 27 28 28 29 30 30 30 31 31 31 32 33 34 34 35 34 34 34 34 34 34 35 35 35 35 34 34 35 35 35 36 36 37 37 38 38 38 38 38 38 38 38 38 38 38 39 39 38 38 37 37 37 38 38 39 39
16 15 14 14 13 12 12 11 11 10 10 9 9 9 8 9 9 9 10 12 13 14 15 16 18 19 20 21 22 23 24 25 26 26 27 27 27 28 28 29 30 32 33 33 33 33 33 32 32 32 32 32 32 33 33 33 33 32 33 33 33 33 34 35 35 36 37 37 37 37 37 38 37 38 38 38 38 39 39 38 38 38 37 37 38 38 39
Wind_Direction
210 212 214 217 220 221 219 219 222 227 226 223 223 224 223 225 225 223 222 221 222 218 199 193 200 199 198 202 206 210 215 217 220 224 225 224 225 225 223 222 223 223 224 225 226 227 229 233 236 237 240 243 243 240 237 235 237 240 241 243 246 247 249 251 251 249 247 246 246 245 245 248 254 258 260 261 261 260 258 253 249 247 245 245 248 251 254
212 214 215 216 219 221 220 219 218 222 227 227 225 224 223 225 225 224 225 222 220 217 205 197 200 200 197 201 208 214 216 215 217 221 221 219 219 221 222 223 224 226 227 228 229 229 231 234 236 236 238 242 245 246 246 246 246 248 248 247 248 248 246 247 248 246 243 242 243 244 245 247 250 253 255 256 255 254 251 248 245 244 241 239 242 246 252
210 214 215 216 219 220 220 220 218 218 222 225 226 225 224 225 225 224 227 225 220 216 208 200 202 207 206 204 209 216 218 218 219 221 220 218 218 221 223 223 224 226 227 229 230 232 235 237 238 238 238 240 243 245 247 248 249 251 253 253 253 253 249 245 245 244 242 240 240 243 245 246 247 249 252 252 251 250 247 245 244 243 240 239 238 241 249
210 211 214 216 219 221 221 220 220 220 220 220 222 223 221 222 223 222 224 224 221 217 210 203 204 211 214 210 208 212 217 221 224 223 223 222 223 226 227 228 228 228 227 228 230 232 235 238 240 241 241 241 243 245 246 246 248 251 254 256 257 256 253 246 243 242 241 240 239 240 244 246 246 246 249 250 249 248 246 245 244 243 241 239 238 241 249
211 212 214 215 219 222 222 219 220 221 222 222 223 224 222 222 222 222 222 224 223 219 215 210 205 205 212 215 210 208 211 216 220 223 226 227 227 229 231 231 233 233 232 232 233 234 236 238 240 242 243 243 244 245 244 244 246 249 252 256 257 254 251 248 244 242 240 240 240 240 243 246 247 246 247 248 248 247 247 247 246 244 244 244 246 249 253
211 214 215 214 217 220 220 219 221 222 223 224 225 226 226 226 225 224 224 226 224 219 217 215 208 201 205 213 215 212 211 212 215 219 223 226 228 230 231 232 234 235 237 238 238 238 239 239 240 242 244 244 244 245 245 244 244 247 250 255 257 253 250 248 245 242 242 241 241 240 242 246 248 248 246 247 247 248 249 250 250 249 249 252 254 257 260
211 214 216 216 218 218 218 220 222 222 223 225 225 225 225 225 223 221 220 221 221 217 216 215 210 203 201 208 216 219 218 217 217 220 222 225 227 229 230 232 233 235 237 238 238 239 240 240 240 242 244 245 245 246 247 245 245 247 251 253 254 252 250 249 245 242 243 242 240 240 241 244 247 247 246 247 248 249 250 251 251 250 251 254 257 261 264
212 214 217 217 217 218 219 221 221 221 222 224 224 224 224 223 222 220 218 217 218 216 215 214 212 208 206 208 215 221 224 224 222 222 224 226 226 228 229 229 229 231 232 233 234 234 236 237 237 239 241 243 245 246 248 248 247 249 250 249 248 249 250 248 244 241 241 241 241 242 244 244 246 247 247 247 247 247 248 249 249 250 251 252 254 257 261
213 215 217 218 217 218 220 222 221 220 221 223 224 224 224 223 223 221 218 216 216 214 214 216 216 214 213 214 214 217 221 225 225 223 223 225 225 227 228 227 226 227 228 230 231 231 232 233 234 235 237 240 242 244 246 247 248 248 245 243 245 248 247 246 244 241 241 243 244 246 248 247 246 245 245 244 244 245 247 248 249 250 251 252 254 255 256
213 215 217 219 218 218 220 222 223 221 221 223 223 224 224 223 223 224 221 218 219 218 217 218 218 216 215 215 215 216 218 221 226 226 225 225 226 226 226 225 224 224 225 227 230 232 233 234 234 234 235 236 238 240 242 243 244 243 239 237 242 245 243 244 246 245 245 247 249 249 249 247 244 241 241 242 243 245 247 249 251 253 254 255 257 257 257
213 214 216 218 219 219 220 223 224 222 221 222 222 223 224 223 224 224 223 221 220 219 217 217 216 216 216 216 216 217 216 217 222 227 227 228 228 227 226 225 224 224 225 226 229 232 233 234 235 236 235 235 236 237 238 239 240 240 237 236 240 243 242 243 247 250 250 252 253 251 248 244 241 239 240 242 245 248 250 253 256 258 259 260 261 262 262
214 215 215 217 218 218 220 222 224 223 222 221 223 223 224 224 224 224 224 222 221 218 216 216 217 217 218 218 217 216 216 216 219 223 227 229 230 230 228 227 227 228 228 228 230 232 233 234 236 237 237 237 238 238 239 240 239 238 237 237 238 241 242 242 246 250 254 256 257 253 248 244 242 241 242 245 249 252 256 259 261 263 265 266 267 268 269
215 216 216 215 214 217 220 221 224 224 222 222 224 224 223 223 224 224 224 224 222 219 217 217 218 218 218 218 218 217 217 217 217 219 223 227 230 232 232 231 232 232 233 232 232 232 232 233 235 237 238 240 240 241 243 243 241 238 238 237 238 239 241 243 245 250 253 256 257 254 251 250 250 250 250 252 255 258 261 264 265 267 269 271 272 274 275
215 216 217 216 214 218 221 220 222 224 223 224 225 223 222 224 225 225 225 225 223 221 220 218 219 220 219 219 219 218 216 216 217 218 220 223 227 231 232 232 233 235 235 236 236 235 233 232 233 235 237 239 241 242 244 245 244 243 241 239 238 239 241 243 245 248 251 253 255 256 255 256 256 256 255 255 257 259 262 265 268 271 273 275 278 280 282
215 217 218 217 214 217 220 220 221 223 223 223 222 221 220 223 225 225 226 226 225 223 222 219 219 220 221 220 219 218 217 217 217 219 220 222 225 229 231 232 233 235 236 237 238 238 238 236 235 236 237 239 240 241 243 244 245 246 245 241 239 239 240 242 244 246 249 251 254 256 257 258 259 259 258 258 259 261 264 266 269 272 275 278 280 283 284
215 216 219 219 217 217 220 221 222 224 225 224 223 222 222 223 225 225 225 226 226 225 223 221 219 220 222 222 220 218 218 218 218 219 221 222 224 227 229 231 232 234 235 237 238 239 240 240 239 239 240 240 241 241 242 243 245 246 247 244 241 240 241 241 243 245 247 250 253 256 258 260 261 262 263 264 266 267 269 271 272 274 275 277 279 281 282
217 216 218 219 219 219 220 221 222 224 225 225 225 225 224 225 226 226 226 226 227 225 224 222 221 220 222 223 222 219 219 219 219 219 220 222 224 227 228 229 231 232 233 235 236 238 238 239 240 240 241 242 243 243 243 243 244 245 247 247 244 241 241 242 243 244 246 249 252 255 258 260 262 264 266 268 269 271 272 273 274 275 275 276 277 279 280
220 219 219 220 221 221 221 222 222 224 225 226 226 227 227 226 226 226 226 227 227 226 225 224 222 221 222 224 224 222 220 219 219 219 220 221 224 227 229 229 230 231 231 232 234 235 236 237 238 239 240 241 243 244 244 243 243 244 245 247 246 244 243 243 243 244 246 247 249 253 256 259 261 264 265 267 268 269 271 271 272 273 274 275 276 277 278
222 222 221 222 223 222 222 222 223 224 226 226 226 227 228 228 228 227 227 228 229 228 227 225 224 222 222 224 225 225 223 221 220 220 220 221 223 226 229 230 231 231 231 231 232 233 234 235 235 237 239 240 241 242 243 244 244 244 244 245 246 246 246 245 244 244 244 245 247 249 252 255 258 260 262 263 265 267 268 270 271 271 272 273 274 275 276
224 223 222 222 223 223 223 223 224 226 227 228 228 228 229 229 230 229 229 229 230 230 229 227 225 224 224 224 226 227 226 225 223 222 222 222 222 224 226 229 231 232 232 232 232 233 233 234 235 236 237 238 239 240 242 243 244 244 243 243 244 246 247 247 245 244 244 244 245 246 248 251 254 256 258 259 262 264 265 267 268 268 269 270 271 273 274
226 225 223 223 224 225 225 225 226 227 227 227 228 229 229 230 231 231 231 231 232 232 232 230 227 226 225 225 225 227 229 229 227 226 225 224 223 223 224 226 229 231 232 233 234 234 235 235 236 237 238 239 239 240 241 242 243 243 243 242 242 244 245 246 246 245 245 245 245 246 248 250 252 254 256 258 260 261 263 264 265 267 268 270 272 273 274
228 228 226 226 225 226 226 226 227 227 226 227 228 229 230 231 232 232 233 233 233 233 233 232 230 228 227 226 226 227 229 230 231 230 229 228 227 225 224 225 227 229 232 233 234 235 236 237 238 238 239 240 240 241 241 242 243 243 243 242 242 243 245 246 247 248 248 248 249 250 251 253 254 256 257 259 261 262 263 265 266 268 270 271 272 273 274
231 231 230 229 227 227 227 228 228 227 227 228 229 230 231 231 232 233 233 234 234 234 234 234 233 231 228 227 228 228 228 230 232 233 233 232 231 229 228 227 227 229 231 233 234 236 236 237 238 239 240 241 241 241 241 241 242 243 243 244 245 246 247 248 249 250 250 251 253 254 254 255 256 257 259 261 262 264 265 266 267 268 270 271 271 271 272
234 235 235 233 231 230 231 231 231 230 229 230 230 231 232 233 233 234 234 234 235 235 235 235 234 233 231 229 229 229 229 230 231 233 234 234 234 233 232 230 229 230 230 232 233 235 236 237 238 238 239 239 240 240 240 240 241 242 243 244 246 248 249 251 251 252 253 254 255 256 256 257 258 259 261 262 263 265 266 267 268 269 269 269 270 269 269
235 236 237 236 235 233 234 234 233 232 231 232 232 233 234 234 235 236 236 236 235 236 236 236 236 235 233 232 231 230 230 230 231 232 233 234 235 235 234 233 232 232 232 232 233 234 235 237 237 238 239 239 239 240 241 242 242 243 243 244 245 246 248 250 251 253 254 255 256 257 257 259 260 261 262 263 265 266 267 268 269 270 270 269 269 269 269
232 233 236 237 236 236 236 236 236 235 234 234 234 235 235 235 236 237 238 238 237 237 237 237 237 236 236 235 234 232 231 231 231 232 233 234 235 235 236 235 235 234 234 234 234 235 236 236 237 238 238 239 240 241 242 243 245 245 245 245 244 244 246 247 249 251 252 253 255 256 257 258 259 260 262 263 264 266 267 267 268 269 269 269 269 269 269
227 229 233 235 236 236 236 237 237 236 235 235 235 236 237 237 238 239 239 240 240 239 238 238 238 238 237 237 237 235 234 233 232 232 233 234 235 236 237 237 237 237 236 236 236 236 237 237 238 238 239 239 240 242 243 244 245 246 247 247 246 245 245 246 247 249 250 252 253 254 255 256 257 258 260 262 263 264 265 265 266 268 269 269 269 269 270
222 224 228 232 233 234 235 236 237 237 236 236 236 237 238 239 239 240 241 242 242 241 240 240 240 239 238 238 239 239 238 237 236 235 235 235 235 237 238 239 239 239 238 237 238 238 238 239 239 240 240 240 241 242 243 244 245 246 246 246 246 245 245 245 245 247 249 251 253 254 255 256 257 258 260 261 262 263 264 265 267 269 270 270 271 271 272
222 225 226 227 228 230 232 234 237 238 237 237 237 237 238 239 240 241 243 244 244 244 243 243 243 242 241 241 241 240 239 238 238 239 239 238 238 238 238 239 240 240 240 239 239 238 239 239 240 241 242 242 243 243 244 245 245 246 246 246 246 245 244 244 245 246 248 250 252 255 257 258 260 261 262 263 264 265 266 267 269 270 270 270 271 272 274
221 226 227 225 226 228 229 231 233 235 236 236 237 237 238 239 240 241 243 244 245 246 247 247 246 246 245 243 242 241 240 240 240 240 240 241 241 240 239 238 239 239 239 239 239 239 239 240 241 242 243 243 244 244 245 245 246 246 246 246 246 246 246 246 246 247 248 250 253 256 259 261 263 264 264 264 265 266 267 268 269 269 269 270 270 271 272
233 234 230 228 228 228 227 226 228 230 232 233 233 234 236 237 239 240 242 244 246 247 248 249 249 249 248 247 245 244 243 242 241 239 238 239 239 238 236 235 235 236 237 238 239 239 240 240 241 242 243 244 244 245 245 246 247 247 247 247 247 248 248 249 249 250 251 252 254 257 260 262 264 265 265 265 266 266 267 267 268 268 268 269 270 271 272
252 247 237 230 229 229 226 223 222 223 225 227 228 230 232 234 235 236 237 239 242 244 245 246 247 248 247 247 247 246 245 244 242 239 236 235 235 234 233 231 231 232 234 235 237 238 239 240 240 241 242 243 244 245 247 248 249 250 250 250 250 250 251 251 252 253 254 254 254 255 257 259 260 262 264 265 265 265 266 266 267 268 268 269 271 273 274
265 260 245 232 228 227 223 220 218 217 216 218 221 223 224 227 228 227 225 227 233 238 239 239 242 244 245 245 244 245 244 243 241 237 233 231 231 232 233 232 232 233 234 234 236 237 238 239 240 241 242 243 244 245 247 249 250 252 253 253 254 254 254 254 255 255 256 257 257 257 258 260 261 263 264 265 265 265 265 266 266 267 269 271 273 275 276
274 262 240 223 223 225 221 215 213 210 209 209 210 211 212 214 216 215 214 217 224 231 234 236 238 241 243 242 241 240 240 240 237 235 232 230 229 231 233 234 235 235 234 234 235 237 239 240 241 242 242 243 244 245 247 248 250 252 254 255 255 255 256 257 257 258 259 261 262 263 264 265 266 265 265 265 264 264 265 266 266 268 270 273 275 277 278
273 257 231 210 213 220 220 215 209 204 201 199 198 198 199 202 203 204 208 214 220 224 228 231 235 238 238 238 238 238 238 237 235 234 232 231 232 233 234 235 236 237 237 236 236 237 240 243 244 243 244 244 245 246 248 249 251 253 254 256 256 257 257 258 259 261 263 264 266 267 267 267 267 266 265 265 264 265 266 267 268 269 272 275 277 279 279
274 239 198 184 192 201 205 205 204 200 196 191 187 187 192 195 192 194 207 218 222 224 227 229 232 235 235 235 236 235 234 234 234 233 233 233 233 234 234 235 236 238 239 239 239 239 242 245 246 246 247 248 249 250 252 254 255 256 257 258 259 259 259 259 260 261 263 265 266 266 266 265 265 265 265 266 266 267 268 269 270 273 275 277 279 280 280
112 114 114 128 148 163 170 173 180 186 187 183 180 183 188 188 186 192 207 215 217 221 227 230 231 233 234 234 233 231 230 230 230 231 231 231 231 232 232 233 234 236 237 238 239 241 244 247 248 249 250 252 253 254 256 258 259 260 261 262 262 261 260 259 260 261 263 264 264 264 264 265 266 266 266 267 267 267 268 270 273 276 278 278 279 280 280
122 123 115 116 123 136 152 165 174 177 175 172 173 179 185 188 193 202 210 212 213 219 226 229 228 228 228 229 228 225 225 226 227 227 229 230 231 231 232 233 235 236 237 238 240 243 246 248 250 252 253 253 254 255 257 260 261 262 263 264 264 263 261 260 259 259 259 259 258 260 262 265 265 265 265 265 266 267 270 272 275 277 278 278 279 280 280
128 145 145 134 127 130 146 163 173 177 177 177 179 183 188 195 203 208 210 213 217 221 222 220 217 215 217 221 224 224 224 226 227 227 229 231 233 235 238 240 241 242 243 244 245 247 250 252 253 255 256 256 256 257 259 261 263 264 265 266 266 264 262 259 256 255 252 250 252 258 264 266 265 264 264 265 268 271 274 276 277 278 277 278 279 280 281
107 155 204 216 161 115 135 157 170 178 184 190 193 191 193 199 205 207 209 213 216 215 214 214 212 209 209 214 219 221 224 226 227 227 228 229 230 233 237 240 242 244 246 248 249 251 252 254 255 257 259 259 260 260 261 262 262 263 264 265 267 266 262 257 253 251 248 247 252 262 269 271 269 267 266 268 271 274 276 277 277 277 277 277 278 279 280
106 141 195 209 196 132 137 163 172 177 183 188 191 192 196 201 204 206 210 213 212 210 212 216 215 209 206 210 215 217 219 221 224 226 227 229 230 232 234 236 238 240 242 244 246 247 249 251 254 255 257 258 259 260 260 260 259 259 260 262 265 265 262 256 252 250 248 248 253 263 271 273 271 269 268 271 274 275 276 277 277 277 277 276 277 278 279
130 155 182 196 210 267 272 186 177 177 180 184 187 191 196 199 200 205 212 215 214 212 214 218 220 216 211 213 218 220 220 219 221 223 225 225 225 227 229 231 235 237 240 242 242 243 244 247 249 251 253 254 255 256 257 257 258 258 259 260 261 261 259 255 251 248 247 249 254 262 269 272 272 270 270 272 273 274 275 276 277 277 277 276 276 276 277
159 177 189 199 225 265 265 199 173 171 176 181 185 190 193 195 199 205 211 214 215 215 217 221 225 225 220 216 218 221 223 223 223 225 228 230 231 233 234 236 238 240 243 245 246 245 245 246 247 248 249 250 252 253 255 256 256 255 255 254 253 253 253 251 247 244 245 248 254 262 268 271 271 270 270 271 272 272 274 275 276 276 276 276 275 275 276
150 167 183 196 217 240 234 197 173 169 174 179 183 190 195 197 199 202 205 208 212 215 218 222 227 232 232 229 226 227 229 229 228 230 233 238 243 247 248 247 247 249 251 252 252 252 251 250 251 250 250 250 251 251 252 252 251 249 247 247 247 248 248 247 245 244 246 251 257 263 268 270 269 269 269 269 270 271 273 274 275 275 276 276 276 275 275
137 150 163 175 192 207 209 205 201 193 186 185 188 194 199 201 201 203 205 208 210 213 217 220 223 225 228 229 230 230 231 232 232 233 235 237 240 244 246 247 248 251 254 256 256 255 254 254 254 255 254 253 252 252 251 250 249 248 247 247 248 248 248 248 248 249 252 256 261 264 266 266 266 267 269 270 270 271 272 273 274 274 275 275 275 275 275
126 137 143 151 167 183 193 202 206 197 188 186 188 193 198 201 202 204 206 207 206 208 212 214 211 207 208 213 217 220 221 222 225 229 232 233 235 238 242 244 244 244 249 253 256 256 256 255 255 256 257 257 256 255 254 253 253 252 252 252 251 251 252 253 254 255 257 260 262 263 263 264 265 268 270 271 272 272 273 273 274 274 274 275 275 275 274
74 105 123 138 152 163 173 181 184 182 181 181 180 180 183 187 189 190 192 193 192 193 197 200 200 200 203 210 214 216 216 216 219 224 231 234 235 236 239 241 240 241 244 249 253 255 256 256 255 255 256 257 257 257 257 256 256 255 255 255 255 255 255 256 256 257 258 259 260 262 263 265 267 270 271 272 273 274 274 275 275 275 275 274 274 273 274
16 26 47 94 142 160 167 170 173 176 180 182 182 181 181 183 184 186 188 190 191 193 196 199 200 203 207 213 217 220 222 224 227 230 233 236 236 235 235 237 239 241 244 247 250 252 254 255 256 256 256 256 256 256 256 256 256 255 255 255 255 255 255 256 257 258 259 260 262 264 265 267 268 270 271 272 273 274 274 275 275 275 275 275 274 273 273
355 359 3 6 2 339 251 198 186 184 185 186 187 188 189 190 193 196 199 202 205 208 212 215 216 216 218 221 225 228 231 233 234 234 234 234 235 235 236 238 241 245 247 249 250 251 251 252 253 254 255 255 255 255 255 255 256 256 256 256 257 257 257 258 260 261 262 263 264 265 266 267 268 268 269 270 271 272 273 273 274 275 275 275 276 276 275
335 337 340 341 339 334 329 322 301 258 225 211 205 202 201 201 201 201 202 203 205 207 210 213 216 220 224 229 232 234 235 236 236 236 236 236 236 237 239 242 244 247 250 251 252 252 252 252 252 252 252 253 254 254 255 255 255 256 257 257 258 259 260 261 262 263 263 264 264 265 266 266 267 268 269 269 269 269 269 269 270 271 272 272 273 274 274
312 316 319 321 320 319 317 316 314 308 296 279 264 248 236 229 224 220 217 214 214 214 216 219 222 226 230 235 238 240 242 242 242 241 241 240 238 239 241 244 247 250 252 253 253 254 254 254 254 253 253 253 253 253 254 255 256 256 257 258 259 261 262 263 263 264 264 265 265 265 266 266 267 267 268 268 268 268 268 267 267 267 268 268 269 270 271
297 298 300 302 303 305 304 303 302 301 298 293 288 282 275 268 261 254 247 242 237 235 235 237 240 242 244 247 248 250 250 250 250 250 249 249 248 247 247 248 251 253 254 254 254 253 254 254 254 254 254 253 253 253 254 255 256 257 258 259 261 262 264 265 266 267 268 268 269 269 269 270 270 270 269 269 269 269 269 268 268 267 267 267 267 268 269
Height
5735 5737 5741 5747 5751 5755 5760 5765 5769 5773 5778 5783 5786 5791 5797 5800 5803 5808 5811 5813 5816 5819 5823 5824 5825 5826 5828 5830 5832 5833 5834 5837 5840 5842 5845 5848 5851 5852 5854 5856 5858 5860 5863 5864 5866 5867 5869 5870 5873 5875 5877 5878 5881 5883 5885 5886 5888 5889 5891 5892 5894 5895 5896 5896 5898 5899 5900 5901 5902 5903 5904 5905 5906 5906 5907 5908 5908 5909 5909 5910 5910 5911 5911 5911 5912 5912 5912
5730 5733 5736 5741 5744 5748 5754 5760 5765 5769 5773 5778 5782 5788 5793 5795 5799 5804 5806 5809 5813 5817 5821 5822 5823 5823 5825 5826 5827 5829 5831 5834 5837 5838 5841 5845 5848 5849 5850 5853 5856 5858 5860 5862 5864 5865 5866 5868 5870 5872 5874 5876 5878 5879 5881 5883 5885 5886 5887 5889 5891 5891 5893 5894 5895 5895 5897 5898 5899 5900 5901 5903 5903 5904 5904 5905 5906 5907 5908 5908 5908 5909 5909 5910 5910 5911 5911
5720 5726 5731 5735 5738 5743 5749 5753 5758 5763 5768 5773 5777 5783 5788 5791 5796 5800 5801 5804 5809 5813 5816 5818 5818 5819 5820 5823 5824 5826 5828 5831 5832 5834 5838 5841 5843 5844 5845 5849 5852 5855 5857 5859 5861 5863 5864 5866 5868 5870 5872 5873 5875 5876 5878 5880 5882 5882 5884 5886 5888 5888 5890 5890 5891 5892 5894 5896 5897 5898 5899 5900 5901 5901 5901 5902 5903 5904 5905 5906 5906 5907 5907 5908 5908 5909 5909
5714 5721 5726 5731 5735 5737 5741 5747 5753 5758 5762 5766 5771 5776 5781 5786 5790 5793 5796 5799 5803 5807 5811 5813 5816 5819 5820 5822 5824 5826 5828 5830 5831 5833 5835 5837 5839 5840 5842 5845 5848 5851 5853 5855 5858 5860 5862 5864 5866 5868 5870 5871 5872 5874 5875 5877 5878 5879 5881 5883 5885 5886 5887 5887 5888 5890 5892 5893 5894 5895 5896 5897 5898 5898 5898 5899 5901 5902 5903 5904 5904 5905 5905 5906 5907 5907 5908
5712 5718 5720 5725 5729 5729 5734 5742 5748 5752 5756 5760 5765 5769 5775 5780 5783 5788 5793 5795 5798 5804 5809 5813 5816 5818 5819 5821 5823 5825 5827 5829 5831 5832 5834 5835 5837 5838 5840 5843 5845 5847 5849 5851 5854 5856 5859 5861 5863 5865 5867 5868 5870 5871 5873 5874 5875 5877 5879 5880 5882 5883 5884 5884 5886 5888 5889 5890 5891 5893 5893 5894 5894 5895 5896 5897 5898 5900 5901 5901 5902 5903 5903 5904 5905 5905 5906
5708 5711 5713 5719 5720 5722 5730 5739 5743 5747 5750 5754 5759 5764 5770 5775 5780 5785 5790 5792 5795 5801 5805 5808 5812 5814 5816 5818 5820 5822 5825 5827 5829 5831 5832 5834 5835 5837 5839 5841 5843 5845 5847 5849 5851 5854 5856 5858 5860 5862 5864 5866 5868 5868 5869 5871 5873 5875 5877 5878 5879 5880 5881 5882 5884 5885 5886 5888 5889 5890 5891 5891 5892 5893 5894 5895 5896 5897 5898 5899 5900 5901 5902 5902 5902 5903 5904
5701 5702 5706 5711 5713 5718 5728 5734 5735 5739 5743 5748 5754 5760 5765 5770 5775 5781 5785 5788 5792 5796 5799 5802 5806 5809 5812 5815 5816 5819 5823 5825 5827 5829 5830 5832 5834 5835 5837 5839 5842 5844 5846 5848 5850 5851 5853 5855 5857 5859 5861 5863 5865 5866 5867 5869 5871 5872 5874 5875 5876 5878 5879 5880 5881 5883 5884 5885 5886 5887 5888 5888 5889 5890 5892 5893 5894 5895 5896 5896 5898 5899 5899 5900 5900 5901 5901
5694 5695 5699 5704 5708 5715 5722 5724 5725 5731 5736 5741 5748 5753 5758 5764 5770 5774 5778 5782 5785 5789 5793 5796 5800 5805 5809 5813 5816 5818 5820 5822 5824 5826 5828 5830 5831 5833 5835 5838 5840 5842 5844 5846 5848 5850 5851 5853 5855 5857 5858 5860 5862 5864 5865 5866 5868 5870 5872 5873 5874 5876 5877 5878 5879 5880 5881 5882 5883 5884 5885 5886 5887 5889 5890 5891 5892 5892 5893 5894 5895 5896 5897 5897 5898 5898 5899
5688 5691 5694 5699 5704 5709 5714 5716 5719 5725 5731 5737 5742 5747 5752 5758 5763 5766 5770 5775 5779 5784 5789 5792 5796 5802 5807 5811 5814 5815 5815 5817 5819 5822 5823 5825 5827 5830 5833 5836 5837 5840 5842 5844 5846 5848 5849 5851 5852 5854 5856 5857 5859 5861 5863 5864 5866 5867 5869 5871 5872 5874 5875 5876 5877 5878 5879 5880 5881 5882 5883 5884 5885 5887 5887 5888 5889 5889 5890 5891 5892 5893 5894 5895 5895 5896 5896
5682 5686 5689 5694 5699 5705 5709 5711 5714 5720 5727 5731 5735 5740 5746 5752 5756 5759 5765 5773 5778 5782 5786 5789 5793 5798 5802 5806 5808 5808 5810 5813 5815 5817 5820 5823 5825 5828 5830 5832 5834 5837 5840 5842 5844 5845 5847 5848 5850 5851 5853 5855 5856 5858 5860 5862 5863 5864 5867 5869 5870 5871 5872 5873 5874 5875 5876 5877 5878 5879 5880 5882 5883 5884 5884 5885 5886 5886 5887 5888 5889 5890 5891 5892 5892 5893 5894
5674 5679 5683 5688 5695 5702 5705 5704 5707 5714 5719 5722 5727 5735 5742 5746 5749 5754 5762 5769 5772 5775 5780 5783 5787 5793 5797 5799 5801 5802 5805 5809 5811 5814 5818 5820 5822 5824 5826 5829 5832 5834 5836 5838 5840 5842 5844 5846 5847 5849 5850 5852 5853 5855 5857 5859 5860 5862 5864 5866 5867 5868 5869 5870 5872 5873 5874 5875 5876 5877 5878 5880 5880 5881 5881 5882 5883 5884 5885 5886 5887 5887 5888 5889 5890 5890 5891
5667 5672 5679 5685 5692 5696 5696 5697 5700 5705 5710 5715 5722 5730 5735 5739 5743 5749 5757 5761 5764 5769 5775 5778 5782 5787 5789 5792 5794 5797 5802 5806 5809 5812 5814 5815 5818 5820 5823 5826 5828 5830 5832 5835 5837 5839 5841 5843 5844 5846 5847 5849 5851 5853 5854 5856 5858 5859 5861 5862 5863 5865 5866 5867 5869 5870 5871 5872 5873 5874 5876 5877 5877 5878 5879 5880 5880 5881 5882 5883 5884 5884 5885 5885 5886 5887 5887
5662 5667 5673 5679 5686 5689 5689 5691 5694 5697 5704 5710 5715 5722 5728 5732 5738 5744 5749 5754 5759 5764 5770 5773 5776 5780 5784 5787 5791 5795 5799 5803 5806 5808 5810 5811 5814 5816 5819 5822 5824 5826 5828 5831 5833 5835 5838 5839 5841 5842 5844 5846 5847 5849 5851 5853 5855 5856 5857 5858 5860 5861 5863 5864 5865 5867 5868 5869 5871 5872 5872 5873 5874 5875 5876 5877 5877 5878 5879 5879 5880 5880 5881 5881 5882 5882 5883
5657 5662 5666 5672 5679 5680 5680 5684 5688 5690 5697 5703 5709 5717 5724 5728 5732 5737 5742 5747 5753 5759 5764 5769 5772 5775 5779 5783 5786 5789 5794 5798 5801 5803 5805 5807 5810 5812 5814 5818 5820 5822 5824 5827 5829 5832 5834 5836 5837 5839 5841 5842 5844 5846 5848 5850 5851 5852 5853 5855 5857 5858 5860 5861 5862 5864 5865 5866 5868 5869 5869 5870 5871 5872 5873 5874 5874 5875 5875 5875 5876 5876 5877 5877 5877 5877 5878
5652 5656 5659 5664 5669 5670 5672 5679 5682 5682 5688 5696 5703 5712 5718 5720 5725 5730 5736 5742 5748 5753 5759 5764 5768 5771 5774 5778 5781 5785 5789 5793 5796 5798 5801 5803 5805 5807 5810 5813 5815 5818 5820 5823 5825 5827 5829 5832 5834 5836 5837 5839 5841 5843 5844 5846 5847 5848 5850 5852 5853 5854 5856 5858 5859 5860 5861 5863 5864 5865 5866 5867 5868 5869 5870 5870 5871 5871 5872 5872 5871 5872 5872 5873 5872 5873 5873
5644 5649 5652 5656 5660 5662 5667 5673 5675 5676 5683 5692 5699 5706 5710 5714 5719 5725 5730 5736 5741 5746 5752 5758 5763 5766 5769 5772 5777 5781 5785 5789 5791 5794 5796 5799 5801 5803 5805 5809 5811 5814 5816 5818 5821 5823 5825 5828 5830 5832 5834 5835 5837 5839 5841 5842 5844 5845 5846 5848 5849 5851 5852 5854 5855 5856 5857 5859 5860 5862 5863 5864 5864 5865 5866 5866 5867 5867 5868 5868 5867 5868 5868 5868 5868 5869 5869
5636 5641 5644 5647 5651 5655 5661 5666 5669 5672 5680 5687 5694 5700 5704 5709 5714 5720 5724 5729 5734 5740 5746 5752 5757 5761 5764 5768 5772 5777 5781 5784 5786 5789 5792 5794 5796 5798 5801 5805 5807 5809 5811 5814 5816 5819 5821 5823 5825 5828 5830 5831 5833 5835 5837 5838 5840 5841 5843 5844 5846 5847 5848 5850 5851 5852 5853 5855 5857 5858 5859 5859 5860 5861 5862 5862 5863 5863 5864 5864 5863 5863 5864 5864 5864 5864 5864
5630 5636 5640 5643 5646 5651 5655 5659 5664 5670 5675 5681 5688 5693 5698 5703 5709 5714 5719 5724 5728 5734 5740 5746 5752 5757 5761 5764 5767 5772 5776 5779 5781 5785 5787 5790 5792 5794 5797 5800 5803 5805 5807 5810 5812 5815 5817 5819 5821 5823 5825 5827 5829 5831 5832 5834 5835 5837 5838 5840 5841 5843 5844 5845 5847 5848 5849 5851 5852 5853 5854 5854 5856 5857 5858 5858 5858 5859 5859 5859 5859 5859 5859 5859 5859 5859 5859
5623 5629 5635 5638 5640 5644 5647 5652 5660 5666 5669 5674 5681 5686 5691 5697 5703 5708 5714 5718 5723 5728 5734 5741 5747 5753 5757 5759 5762 5766 5770 5773 5777 5780 5782 5785 5788 5790 5793 5796 5798 5800 5803 5806 5808 5810 5812 5815 5817 5819 5821 5822 5824 5826 5828 5829 5831 5832 5834 5836 5837 5838 5840 5841 5842 5843 5845 5846 5847 5848 5849 5850 5851 5852 5853 5853 5853 5854 5854 5854 5855 5855 5855 5854 5854 5854 5854
5617 5622 5627 5630 5633 5637 5643 5651 5659 5663 5664 5668 5675 5681 5686 5691 5696 5702 5709 5713 5717 5722 5728 5735 5742 5747 5751 5755 5757 5761 5764 5768 5771 5775 5778 5781 5784 5786 5788 5791 5793 5795 5798 5800 5803 5805 5808 5810 5812 5814 5816 5818 5819 5821 5823 5825 5826 5828 5829 5831 5832 5834 5835 5837 5838 5839 5840 5841 5843 5844 5844 5845 5846 5847 5847 5848 5848 5849 5849 5849 5849 5849 5849 5848 5848 5848 5847
5611 5615 5621 5626 5630 5635 5642 5648 5652 5653 5656 5662 5669 5674 5680 5686 5691 5697 5703 5708 5712 5718 5723 5730 5736 5742 5746 5750 5753 5756 5759 5762 5766 5769 5772 5775 5778 5781 5784 5786 5788 5790 5793 5795 5798 5801 5803 5805 5807 5809 5812 5813 5815 5817 5818 5820 5822 5823 5825 5826 5828 5829 5830 5832 5833 5834 5835 5836 5838 5838 5839 5840 5841 5841 5842 5842 5843 5843 5843 5843 5843 5843 5842 5842 5842 5841 5840
5607 5611 5616 5621 5624 5627 5632 5637 5640 5643 5650 5658 5664 5669 5674 5680 5686 5691 5697 5703 5708 5712 5718 5724 5730 5735 5740 5744 5747 5750 5754 5757 5760 5763 5767 5770 5773 5776 5779 5782 5784 5786 5788 5790 5793 5795 5798 5800 5802 5804 5806 5808 5810 5812 5813 5815 5816 5818 5820 5821 5823 5824 5825 5826 5828 5829 5830 5831 5832 5833 5834 5835 5835 5836 5836 5837 5837 5837 5838 5837 5837 5837 5836 5836 5835 5834 5833
5604 5607 5610 5613 5616 5620 5626 5631 5635 5640 5647 5654 5660 5664 5669 5675 5680 5686 5691 5697 5702 5707 5712 5717 5723 5728 5734 5739 5742 5745 5749 5752 5755 5758 5761 5764 5767 5770 5774 5777 5779 5781 5784 5786 5788 5790 5793 5795 5797 5799 5801 5803 5805 5806 5808 5809 5811 5812 5814 5816 5817 5819 5820 5821 5823 5824 5825 5825 5827 5828 5829 5829 5830 5830 5831 5831 5831 5831 5831 5831 5831 5831 5830 5829 5829 5827 5826
5602 5604 5605 5607 5612 5618 5624 5628 5631 5636 5642 5649 5654 5660 5664 5670 5675 5680 5685 5691 5697 5702 5706 5711 5717 5722 5728 5733 5736 5740 5743 5747 5749 5752 5755 5758 5761 5764 5767 5770 5774 5776 5779 5781 5783 5785 5787 5789 5791 5793 5795 5797 5799 5800 5802 5804 5805 5807 5809 5810 5812 5813 5814 5816 5817 5819 5819 5820 5822 5823 5823 5823 5823 5824 5824 5824 5824 5825 5824 5824 5824 5823 5823 5822 5822 5821 5820
5597 5599 5600 5602 5607 5614 5619 5621 5625 5631 5638 5644 5649 5654 5659 5664 5669 5674 5679 5685 5691 5696 5701 5706 5711 5717 5722 5726 5731 5734 5738 5741 5744 5746 5749 5752 5755 5758 5761 5764 5767 5770 5773 5775 5777 5779 5782 5784 5786 5788 5789 5791 5793 5794 5796 5798 5799 5801 5803 5804 5806 5807 5809 5810 5811 5812 5813 5814 5815 5816 5816 5817 5817 5817 5817 5817 5817 5817 5818 5817 5816 5816 5816 5815 5814 5814 5813
5591 5593 5594 5597 5602 5608 5612 5615 5620 5626 5632 5637 5642 5647 5652 5658 5663 5668 5672 5678 5684 5690 5695 5700 5705 5711 5716 5720 5724 5728 5732 5735 5738 5741 5743 5746 5749 5751 5754 5757 5760 5763 5766 5769 5772 5774 5776 5778 5780 5782 5784 5786 5787 5789 5790 5792 5794 5795 5797 5798 5800 5801 5803 5804 5805 5806 5807 5808 5809 5809 5810 5810 5810 5810 5810 5810 5810 5810 5810 5810 5809 5809 5808 5808 5807 5806 5805
5586 5587 5588 5592 5598 5602 5606 5609 5613 5618 5624 5631 5637 5642 5646 5651 5657 5661 5666 5671 5677 5683 5689 5694 5699 5704 5710 5714 5718 5722 5726 5729 5732 5735 5737 5740 5743 5745 5748 5751 5754 5757 5760 5763 5765 5767 5770 5772 5774 5776 5778 5779 5781 5783 5785 5787 5788 5789 5791 5792 5794 5795 5796 5797 5798 5799 5800 5801 5802 5802 5803 5803 5804 5804 5803 5803 5803 5803 5803 5803 5802 5802 5801 5800 5800 5799 5798
5582 5583 5584 5588 5592 5596 5599 5603 5607 5612 5619 5626 5632 5637 5641 5646 5652 5657 5661 5666 5671 5676 5683 5688 5692 5698 5703 5708 5711 5715 5719 5722 5725 5728 5731 5734 5737 5740 5742 5744 5747 5750 5753 5755 5758 5761 5763 5765 5767 5769 5771 5772 5774 5776 5778 5780 5782 5783 5785 5786 5788 5789 5790 5791 5791 5792 5793 5794 5795 5795 5796 5796 5797 5797 5797 5797 5797 5796 5796 5796 5795 5794 5793 5792 5792 5791 5790
5579 5580 5581 5584 5586 5588 5593 5598 5603 5608 5615 5621 5627 5632 5637 5642 5647 5653 5657 5660 5665 5670 5676 5681 5686 5691 5696 5701 5704 5708 5712 5715 5719 5722 5725 5728 5731 5733 5736 5738 5740 5743 5745 5748 5751 5753 5755 5758 5760 5761 5763 5765 5767 5769 5771 5773 5775 5777 5778 5779 5781 5782 5783 5784 5785 5785 5786 5787 5788 5788 5789 5789 5789 5789 5790 5790 5789 5789 5788 5788 5787 5786 5786 5785 5784 5783 5783
5578 5578 5579 5580 5581 5583 5588 5594 5598 5603 5609 5616 5621 5627 5632 5636 5642 5648 5652 5656 5660 5665 5670 5674 5679 5683 5688 5693 5698 5702 5705 5708 5712 5716 5719 5722 5724 5727 5729 5732 5734 5737 5739 5741 5743 5745 5748 5750 5752 5754 5756 5758 5760 5762 5764 5766 5768 5770 5771 5772 5773 5775 5776 5777 5778 5779 5779 5780 5780 5781 5781 5781 5782 5782 5782 5782 5782 5781 5781 5780 5779 5778 5777 5777 5776 5775 5774
5576 5576 5576 5577 5578 5580 5584 5588 5592 5597 5604 5610 5615 5621 5626 5631 5637 5643 5647 5651 5655 5660 5664 5668 5671 5675 5680 5686 5691 5695 5698 5701 5706 5710 5713 5716 5718 5720 5723 5725 5728 5730 5732 5734 5736 5738 5740 5742 5744 5746 5748 5750 5752 5754 5756 5758 5760 5762 5764 5765 5767 5768 5769 5770 5771 5771 5772 5773 5773 5773 5774 5774 5774 5774 5774 5774 5774 5773 5773 5772 5771 5770 5769 5768 5767 5767 5766
5573 5573 5573 5574 5575 5577 5580 5582 5586 5591 5597 5603 5609 5615 5621 5627 5633 5638 5642 5646 5649 5653 5657 5661 5664 5668 5673 5678 5683 5688 5691 5695 5699 5703 5706 5709 5712 5715 5717 5719 5721 5724 5726 5728 5730 5732 5733 5735 5737 5738 5740 5742 5744 5746 5748 5751 5753 5754 5756 5758 5760 5761 5762 5763 5764 5764 5765 5766 5766 5766 5766 5766 5766 5766 5766 5766 5766 5765 5765 5764 5763 5762 5761 5760 5759 5759 5758
5570 5570 5570 5571 5573 5574 5576 5578 5581 5586 5591 5597 5604 5610 5617 5622 5627 5632 5638 5642 5645 5648 5651 5655 5658 5661 5666 5671 5676 5680 5684 5688 5692 5696 5699 5703 5706 5709 5711 5713 5715 5717 5719 5721 5723 5725 5727 5728 5730 5732 5733 5735 5737 5739 5741 5743 5745 5747 5749 5751 5752 5753 5754 5755 5756 5757 5758 5758 5758 5758 5758 5758 5758 5758 5758 5758 5757 5756 5756 5755 5754 5754 5753 5752 5751 5750 5749
5568 5567 5567 5568 5569 5571 5573 5574 5576 5581 5586 5593 5599 5605 5611 5617 5622 5627 5633 5638 5641 5643 5646 5649 5652 5656 5660 5665 5669 5672 5676 5680 5684 5688 5692 5696 5699 5702 5704 5706 5708 5710 5712 5714 5716 5718 5720 5722 5723 5725 5726 5727 5729 5731 5733 5735 5737 5739 5741 5743 5744 5746 5746 5747 5748 5749 5750 5750 5750 5750 5750 5750 5750 5750 5749 5749 5748 5748 5747 5747 5747 5746 5745 5744 5743 5742 5740
5567 5566 5565 5565 5567 5569 5571 5572 5573 5577 5582 5589 5595 5601 5608 5613 5618 5624 5631 5634 5635 5638 5642 5645 5648 5652 5655 5658 5661 5665 5669 5673 5676 5680 5684 5687 5691 5694 5697 5699 5701 5703 5705 5707 5709 5711 5713 5714 5716 5717 5719 5720 5722 5724 5726 5728 5730 5732 5733 5734 5736 5737 5738 5739 5740 5741 5742 5742 5742 5743 5743 5742 5742 5741 5741 5741 5740 5740 5740 5739 5739 5738 5737 5736 5734 5733 5731
5568 5567 5566 5565 5566 5568 5570 5571 5573 5576 5580 5585 5592 5599 5606 5611 5616 5623 5629 5631 5631 5633 5637 5640 5643 5647 5649 5652 5655 5658 5662 5666 5669 5672 5675 5679 5682 5686 5689 5691 5694 5696 5698 5700 5702 5703 5705 5707 5708 5710 5712 5713 5715 5716 5718 5720 5722 5724 5725 5726 5728 5729 5730 5731 5732 5733 5733 5734 5734 5734 5734 5734 5734 5734 5734 5733 5733 5732 5732 5732 5731 5730 5729 5727 5726 5724 5723
5571 5570 5569 5568 5568 5569 5570 5572 5575 5577 5581 5587 5593 5599 5605 5610 5615 5621 5625 5627 5628 5631 5632 5635 5639 5643 5645 5647 5650 5653 5656 5659 5663 5666 5669 5672 5675 5678 5681 5683 5686 5688 5690 5692 5694 5696 5698 5699 5701 5703 5704 5706 5707 5709 5711 5712 5714 5716 5717 5718 5720 5721 5722 5722 5723 5724 5725 5725 5726 5726 5726 5726 5726 5726 5726 5726 5725 5725 5725 5724 5724 5723 5721 5718 5717 5717 5715
5574 5573 5572 5572 5572 5573 5574 5576 5578 5580 5584 5589 5595 5600 5605 5611 5615 5619 5620 5623 5626 5628 5629 5632 5636 5639 5641 5643 5646 5649 5652 5655 5658 5661 5664 5666 5669 5671 5673 5676 5678 5680 5682 5685 5687 5689 5691 5692 5694 5695 5697 5698 5700 5701 5703 5704 5706 5708 5709 5711 5712 5713 5713 5714 5715 5717 5717 5717 5718 5719 5719 5719 5719 5719 5719 5718 5718 5717 5717 5717 5716 5715 5713 5711 5709 5708 5707
5576 5575 5575 5575 5576 5577 5579 5580 5582 5584 5588 5591 5595 5600 5605 5609 5613 5615 5617 5619 5622 5624 5626 5629 5632 5634 5636 5639 5643 5646 5649 5652 5655 5657 5659 5661 5663 5666 5668 5670 5672 5674 5676 5678 5680 5682 5684 5686 5687 5688 5690 5691 5693 5694 5696 5697 5698 5700 5701 5702 5704 5705 5705 5706 5708 5709 5710 5711 5712 5712 5712 5712 5712 5711 5711 5711 5710 5710 5709 5709 5708 5707 5705 5703 5702 5700 5699
5579 5578 5577 5578 5579 5580 5582 5583 5585 5588 5591 5593 5596 5600 5604 5607 5610 5612 5614 5616 5618 5620 5622 5626 5629 5631 5633 5637 5640 5643 5646 5649 5651 5653 5655 5656 5658 5661 5663 5665 5666 5668 5669 5671 5673 5675 5677 5679 5680 5681 5683 5684 5685 5687 5688 5689 5690 5692 5693 5694 5695 5697 5698 5699 5700 5701 5702 5703 5704 5704 5704 5704 5704 5704 5703 5703 5703 5702 5702 5701 5700 5699 5697 5696 5695 5693 5692
5581 5580 5579 5580 5581 5582 5584 5586 5587 5589 5592 5594 5597 5600 5603 5606 5609 5611 5612 5614 5615 5617 5619 5622 5626 5629 5631 5634 5637 5639 5642 5644 5647 5649 5651 5652 5654 5656 5658 5660 5661 5663 5664 5665 5667 5669 5670 5672 5673 5675 5676 5677 5678 5679 5680 5682 5683 5684 5686 5687 5687 5689 5691 5693 5693 5694 5695 5696 5696 5697 5697 5697 5696 5696 5696 5696 5695 5695 5694 5693 5692 5691 5690 5689 5688 5686 5685
5584 5583 5583 5582 5582 5583 5584 5585 5587 5589 5592 5594 5597 5599 5602 5605 5608 5610 5610 5612 5614 5617 5619 5621 5623 5626 5629 5632 5634 5636 5638 5640 5643 5645 5647 5648 5649 5651 5653 5655 5656 5657 5658 5659 5661 5662 5664 5666 5667 5668 5669 5671 5672 5673 5673 5675 5676 5677 5678 5679 5679 5681 5682 5684 5685 5687 5688 5689 5689 5690 5690 5690 5689 5688 5688 5688 5688 5688 5687 5686 5685 5684 5683 5682 5681 5680 5678
5586 5586 5586 5585 5585 5585 5585 5586 5587 5590 5592 5595 5597 5599 5602 5604 5606 5608 5609 5610 5613 5616 5618 5620 5621 5623 5626 5628 5631 5633 5635 5637 5639 5641 5642 5643 5645 5647 5649 5650 5651 5653 5653 5654 5655 5657 5658 5659 5660 5662 5663 5664 5665 5666 5666 5667 5668 5669 5670 5671 5672 5673 5674 5675 5677 5679 5680 5681 5682 5683 5683 5682 5682 5681 5681 5681 5681 5681 5680 5679 5678 5677 5676 5675 5674 5673 5671
5588 5588 5588 5588 5588 5588 5588 5588 5589 5591 5593 5595 5597 5599 5601 5603 5604 5606 5607 5609 5611 5614 5617 5618 5619 5621 5623 5626 5628 5630 5632 5634 5635 5637 5638 5639 5640 5642 5644 5646 5647 5648 5649 5650 5651 5652 5653 5654 5655 5656 5656 5657 5658 5659 5659 5660 5661 5662 5663 5664 5666 5666 5667 5668 5669 5671 5672 5674 5674 5675 5675 5675 5674 5674 5673 5673 5674 5673 5673 5672 5671 5670 5669 5668 5667 5666 5665
5591 5590 5589 5590 5590 5590 5590 5591 5592 5592 5593 5595 5596 5598 5599 5601 5602 5604 5606 5607 5609 5611 5614 5616 5617 5618 5620 5622 5625 5627 5628 5630 5631 5632 5634 5635 5636 5638 5640 5642 5642 5643 5644 5645 5646 5647 5648 5649 5650 5650 5651 5652 5652 5653 5654 5654 5655 5656 5657 5658 5659 5660 5661 5662 5663 5664 5665 5666 5667 5667 5667 5667 5666 5666 5665 5665 5666 5666 5666 5665 5665 5664 5663 5662 5661 5660 5658
5593 5592 5592 5592 5592 5591 5592 5592 5593 5593 5594 5594 5595 5596 5597 5599 5600 5601 5603 5604 5606 5608 5610 5613 5615 5615 5616 5618 5620 5622 5624 5625 5626 5627 5629 5631 5632 5634 5636 5637 5637 5637 5639 5640 5641 5642 5643 5643 5644 5645 5645 5646 5647 5647 5648 5648 5649 5650 5651 5652 5653 5654 5655 5656 5656 5657 5658 5659 5659 5659 5659 5659 5659 5658 5658 5658 5658 5658 5658 5658 5657 5657 5656 5655 5654 5653 5652
5595 5594 5593 5593 5593 5593 5593 5593 5593 5593 5594 5594 5595 5596 5596 5597 5598 5600 5601 5602 5604 5605 5607 5609 5612 5613 5614 5616 5617 5619 5620 5621 5622 5623 5625 5626 5627 5629 5631 5631 5631 5631 5633 5634 5635 5636 5637 5638 5638 5639 5639 5640 5641 5642 5642 5643 5644 5644 5645 5646 5647 5648 5649 5649 5650 5650 5651 5651 5651 5651 5651 5651 5651 5651 5651 5651 5651 5651 5650 5650 5650 5649 5649 5648 5648 5647 5646
5596 5595 5595 5594 5594 5594 5594 5594 5594 5594 5594 5594 5595 5595 5596 5597 5598 5599 5600 5602 5603 5604 5605 5607 5609 5610 5611 5613 5614 5615 5616 5618 5619 5620 5621 5622 5623 5624 5625 5626 5626 5626 5628 5629 5630 5631 5631 5632 5632 5633 5633 5634 5635 5636 5637 5637 5638 5639 5639 5640 5641 5642 5642 5643 5643 5644 5644 5644 5644 5644 5644 5644 5644 5644 5644 5644 5643 5643 5643 5643 5642 5642 5641 5641 5641 5641 5640
5596 5596 5595 5595 5594 5594 5594 5594 5594 5594 5594 5594 5595 5595 5595 5596 5597 5598 5599 5600 5602 5603 5604 5605 5606 5608 5609 5610 5612 5612 5613 5614 5615 5615 5616 5617 5618 5619 5620 5621 5621 5622 5623 5624 5625 5626 5626 5626 5626 5627 5628 5628 5629 5630 5631 5632 5632 5633 5634 5634 5635 5636 5636 5636 5637 5637 5637 5637 5637 5637 5637 5637 5637 5637 5637 5637 5637 5636 5636 5636 5635 5635 5634 5634 5634 5634 5634
5596 5595 5595 5594 5594 5594 5593 5593 5593 5593 5593 5593 5594 5594 5594 5595 5595 5596 5597 5599 5600 5601 5602 5604 5605 5606 5607 5608 5609 5609 5610 5610 5611 5611 5612 5613 5613 5614 5615 5616 5617 5618 5619 5620 5620 5621 5621 5621 5622 5622 5622 5623 5624 5625 5625 5626 5626 5627 5628 5628 5629 5630 5630 5630 5630 5630 5630 5630 5630 5630 5630 5631 5631 5631 5631 5631 5630 5630 5630 5629 5629 5628 5628 5628 5628 5628 5628
5596 5595 5594 5594 5593 5593 5593 5592 5592 5592 5592 5592 5592 5593 5593 5593 5594 5594 5595 5596 5597 5598 5599 5600 5602 5603 5604 5604 5605 5605 5606 5606 5607 5608 5608 5609 5609 5610 5611 5611 5612 5613 5614 5615 5616 5616 5616 5617 5617 5617 5618 5618 5619 5619 5620 5620 5621 5622 5622 5622 5623 5624 5624 5624 5624 5624 5624 5624 5624 5624 5624 5624 5624 5624 5624 5624 5624 5624 5623 5623 5623 5623 5623 5622 5622 5622 5622
5594 5594 5594 5593 5593 5592 5592 5592 5591 5591 5591 5591 5591 5591 5592 5592 5592 5593 5593 5594 5594 5595 5596 5597 5598 5599 5600 5600 5601 5601 5602 5602 5603 5604 5605 5605 5606 5606 5607 5607 5608 5609 5610 5610 5611 5611 5612 5612 5613 5613 5614 5614 5614 5615 5615 5616 5616 5616 5617 5617 5618 5618 5618 5618 5618 5618 5618 5618 5618 5618 5617 5617 5617 5617 5617 5617 5617 5617 5617 5617 5617 5617 5617 5616 5616 5616 5616